| time (UTC) | temp F | wind direction | speed MPH | gust MPH | rain 1hr in | rain 24hr in | rain mn in | humidity % | barometer mb |
| 20260506081544 | 29 | 0 | 0.0 | 1.0 | 0.00 | 0.00 | 0.00 | 74 | 1014.7 |
| 20260506073041 | 30 | 0 | 0.0 | 0.0 | 0.00 | 0.00 | 0.00 | 72 | 1014.3 |
| 20260506071542 | 31 | 0 | 0.0 | 0.0 | 0.00 | 0.00 | 0.00 | 70 | 1014.3 |
| 20260506061541 | 34 | 0 | 0.0 | 1.0 | 0.00 | 0.00 | 0.00 | 65 | 1014.2 |
| 20260506044543 | 36 | 224 | 1.0 | 5.0 | 0.00 | 0.00 | 0.00 | 60 | 1013.9 |
| 20260506043048 | 37 | 200 | 1.0 | 4.0 | 0.00 | 0.00 | 0.00 | 60 | 1014.0 |
| 20260506041537 | 37 | 184 | 1.0 | 5.0 | 0.00 | 0.00 | 0.00 | 59 | 1013.9 |
| 20260506040047 | 38 | 0 | 1.0 | 5.0 | 0.00 | 0.00 | 0.00 | 57 | 1013.8 |
| 20260506034543 | 38 | 0 | 2.0 | 7.0 | 0.00 | 0.00 | 0.00 | 56 | 1013.7 |
| 20260506033043 | 39 | 204 | 3.0 | 8.0 | 0.00 | 0.00 | 0.00 | 55 | 1013.4 |
| 20260506031546 | 39 | 195 | 2.0 | 7.0 | 0.00 | 0.00 | 0.00 | 55 | 1013.3 |
| 20260506030047 | 39 | 204 | 2.0 | 5.0 | 0.00 | 0.00 | 0.00 | 55 | 1013.2 |
| 20260506024557 | 40 | 182 | 2.0 | 7.0 | 0.00 | 0.00 | 0.00 | 54 | 1013.1 |
| 20260506023044 | 40 | 203 | 3.0 | 8.0 | 0.00 | 0.00 | 0.00 | 53 | 1012.9 |
| 20260506021541 | 41 | 186 | 3.0 | 7.0 | 0.00 | 0.00 | 0.00 | 53 | 1012.7 |
| 20260506020040 | 41 | 205 | 3.0 | 9.0 | 0.00 | 0.00 | 0.00 | 52 | 1012.5 |
| 20260506014541 | 42 | 199 | 5.0 | 15.0 | 0.00 | 0.00 | 0.00 | 52 | 1012.3 |
| 20260506013045 | 43 | 254 | 0.0 | 9.0 | 0.00 | 0.00 | 0.00 | 52 | 1012.1 |
| 20260506011540 | 44 | 186 | 2.0 | 13.0 | 0.00 | 0.00 | 0.00 | 50 | 1011.9 |
| 20260506010044 | 45 | 242 | 6.0 | 14.0 | 0.00 | 0.00 | 0.00 | 48 | 1011.7 |
| 20260506004541 | 45 | 249 | 4.0 | 11.0 | 0.00 | 0.00 | 0.00 | 47 | 1011.6 |
| 20260506003041 | 46 | 232 | 3.0 | 10.0 | 0.00 | 0.00 | 0.00 | 46 | 1011.4 |
| 20260506001541 | 48 | 226 | 4.0 | 14.0 | 0.00 | 0.00 | 0.00 | 43 | 1011.2 |
| 20260506000037 | 48 | 220 | 5.0 | 13.0 | 0.00 | 0.00 | 0.00 | 44 | 1011.1 |
| 20260505234550 | 47 | 220 | 4.0 | 15.0 | 0.00 | 0.00 | 0.00 | 45 | 1011.0 |
| 20260505233045 | 47 | 264 | 2.0 | 12.0 | 0.00 | 0.00 | 0.00 | 46 | 1010.7 |
| 20260505231554 | 48 | 250 | 5.0 | 14.0 | 0.00 | 0.00 | 0.00 | 44 | 1010.8 |
| 20260505230052 | 49 | 262 | 5.0 | 14.0 | 0.00 | 0.00 | 0.00 | 43 | 1010.5 |
| 20260505224548 | 49 | 201 | 3.0 | 10.0 | 0.00 | 0.00 | 0.00 | 43 | 1010.4 |
| 20260505223046 | 49 | 192 | 3.0 | 16.0 | 0.00 | 0.00 | 0.00 | 42 | 1010.4 |
| 20260505221547 | 49 | 202 | 7.0 | 15.0 | 0.00 | 0.00 | 0.00 | 41 | 1010.4 |
| 20260505220048 | 49 | 194 | 5.0 | 13.0 | 0.00 | 0.00 | 0.00 | 43 | 1010.4 |
| 20260505214541 | 49 | 188 | 4.0 | 12.0 | 0.00 | 0.00 | 0.00 | 42 | 1010.6 |
| 20260505213047 | 49 | 205 | 4.0 | 16.0 | 0.00 | 0.00 | 0.00 | 42 | 1010.8 |
| 20260505211544 | 49 | 195 | 6.0 | 16.0 | 0.00 | 0.00 | 0.00 | 44 | 1010.6 |
| 20260505210038 | 49 | 130 | 2.0 | 12.0 | 0.00 | 0.00 | 0.00 | 45 | 1010.8 |
| 20260505204548 | 49 | 192 | 4.0 | 13.0 | 0.00 | 0.00 | 0.00 | 42 | 1010.9 |
| 20260505203046 | 48 | 200 | 4.0 | 11.0 | 0.00 | 0.00 | 0.00 | 44 | 1010.9 |
| 20260505201541 | 48 | 194 | 6.0 | 15.0 | 0.00 | 0.00 | 0.00 | 43 | 1011.1 |
| 20260505200043 | 48 | 217 | 3.0 | 11.0 | 0.00 | 0.00 | 0.00 | 45 | 1011.1 |
| 20260505194540 | 48 | 215 | 3.0 | 7.0 | 0.00 | 0.00 | 0.00 | 43 | 1011.0 |
| 20260505193046 | 48 | 216 | 4.0 | 11.0 | 0.00 | 0.00 | 0.00 | 44 | 1011.0 |
| 20260505191607 | 47 | 148 | 3.0 | 12.0 | 0.00 | 0.00 | 0.00 | 46 | 1011.1 |
| 20260505190043 | 47 | 210 | 3.0 | 15.0 | 0.00 | 0.00 | 0.00 | 44 | 1011.1 |
| 20260505184542 | 47 | 209 | 4.0 | 11.0 | 0.00 | 0.00 | 0.00 | 44 | 1011.0 |
| 20260505183045 | 47 | 227 | 2.0 | 10.0 | 0.00 | 0.00 | 0.00 | 46 | 1011.1 |
| 20260505181544 | 47 | 202 | 3.0 | 12.0 | 0.00 | 0.00 | 0.00 | 44 | 1011.0 |
| 20260505180100 | 47 | 150 | 3.0 | 13.0 | 0.00 | 0.00 | 0.00 | 46 | 1010.9 |
| 20260505174552 | 46 | 213 | 4.0 | 10.0 | 0.00 | 0.00 | 0.00 | 44 | 1011.0 |
| 20260505173039 | 46 | 226 | 2.0 | 11.0 | 0.00 | 0.00 | 0.00 | 46 | 1010.9 |
| 20260505171544 | 47 | 225 | 5.0 | 14.0 | 0.00 | 0.00 | 0.00 | 43 | 1011.0 |
| 20260505170040 | 46 | 271 | 5.0 | 11.0 | 0.00 | 0.00 | 0.00 | 46 | 1011.0 |
| 20260505164550 | 47 | 202 | 5.0 | 10.0 | 0.00 | 0.00 | 0.00 | 43 | 1010.8 |
| 20260505163042 | 47 | 223 | 4.0 | 13.0 | 0.00 | 0.00 | 0.00 | 46 | 1011.0 |
| 20260505161545 | 46 | 219 | 7.0 | 14.0 | 0.00 | 0.00 | 0.00 | 45 | 1011.0 |
| 20260505153048 | 45 | 221 | 3.0 | 12.0 | 0.00 | 0.00 | 0.00 | 48 | 1010.9 |
| 20260505151543 | 44 | 210 | 6.0 | 16.0 | 0.00 | 0.00 | 0.00 | 48 | 1010.7 |
| 20260505124539 | 38 | 198 | 2.0 | 12.0 | 0.00 | 0.00 | 0.00 | 57 | 1009.7 |
| 20260505123045 | 38 | 192 | 3.0 | 9.0 | 0.00 | 0.00 | 0.00 | 60 | 1009.6 |
| 20260505121543 | 37 | 215 | 2.0 | 7.0 | 0.00 | 0.00 | 0.00 | 63 | 1009.5 |
| 20260505120041 | 36 | 219 | 1.0 | 7.0 | 0.00 | 0.00 | 0.00 | 66 | 1009.4 |
| 20260505114541 | 35 | 205 | 1.0 | 4.0 | 0.00 | 0.00 | 0.00 | 67 | 1009.3 |
| 20260505113044 | 35 | 204 | 1.0 | 5.0 | 0.00 | 0.00 | 0.00 | 67 | 1008.9 |
| 20260505111538 | 35 | 213 | 1.0 | 5.0 | 0.00 | 0.00 | 0.00 | 68 | 1008.8 |
| 20260505101558 | 36 | 184 | 3.0 | 7.0 | 0.00 | 0.00 | 0.00 | 68 | 1008.3 |
| 20260505100057 | 36 | 217 | 3.0 | 8.0 | 0.00 | 0.00 | 0.00 | 69 | 1008.2 |
| 20260505094536 | 37 | 166 | 2.0 | 8.0 | 0.00 | 0.00 | 0.00 | 68 | 1008.4 |
| 20260505093051 | 37 | 222 | 3.0 | 7.0 | 0.00 | 0.00 | 0.00 | 68 | 1008.2 |
| 20260505091542 | 37 | 189 | 2.0 | 10.0 | 0.00 | 0.00 | 0.00 | 67 | 1008.1 |
| 20260505090041 | 38 | 211 | 2.0 | 7.0 | 0.00 | 0.00 | 0.00 | 66 | 1007.8 |
| 20260505084538 | 38 | 196 | 4.0 | 8.0 | 0.00 | 0.00 | 0.00 | 65 | 1007.6 |
| 20260505083041 | 38 | 210 | 3.0 | 7.0 | 0.00 | 0.00 | 0.00 | 65 | 1007.5 |